CW1663 Weather Reports


time (UTC)temp
F
wind
direction
speed
knots
gust
knots
rain 1hr
in
rain 24hr
in
rain mn
in
humidity
%
barometer
mb
20260508002804 49 132 0.0 0.0 0.00 0.00 0.00 85 1015.7
20260508002306 49 132 0.0 0.0 0.00 0.00 0.00 85 1015.7
20260508001804 49 132 0.0 0.0 0.00 0.00 0.00 85 1015.7
20260508000804 49 132 0.0 0.0 0.00 0.00 0.00 85 1015.7
20260507235306 49 132 0.0 0.0 0.00 0.00 0.00 85 1015.7
20260507233804 49 132 0.0 0.0 0.00 0.00 0.00 85 1015.7
20260507233304 49 132 0.0 0.0 0.00 0.00 0.00 85 1015.7
20260507232306 49 132 0.0 0.0 0.00 0.00 0.00 85 1015.7
20260507231804 49 132 0.0 0.0 0.00 0.00 0.00 85 1015.7
20260507225804 49 132 0.0 0.0 0.00 0.00 0.00 85 1015.7
20260507224304 49 132 0.0 0.0 0.00 0.00 0.00 85 1015.7
20260507223804 49 132 0.0 0.0 0.00 0.00 0.00 85 1015.7
20260507221804 49 132 0.0 0.0 0.00 0.00 0.00 85 1015.7
20260507221304 49 132 0.0 0.0 0.00 0.00 0.00 85 1015.7
20260507220804 49 132 0.0 0.0 0.00 0.00 0.00 85 1015.7
20260507215804 49 132 0.0 0.0 0.00 0.00 0.00 85 1015.7
20260507215306 49 132 0.0 0.0 0.00 0.00 0.00 85 1015.7
20260507214804 49 132 0.0 0.0 0.00 0.00 0.00 85 1015.7
20260507214304 49 132 0.0 0.0 0.00 0.00 0.00 85 1015.7
20260507212803 49 132 0.0 0.0 0.00 0.00 0.00 85 1015.7
20260507211804 49 132 0.0 0.0 0.00 0.00 0.00 85 1015.7
20260507210804 49 132 0.0 0.0 0.00 0.00 0.00 85 1015.7
20260507205804 49 132 0.0 0.0 0.00 0.00 0.00 85 1015.7
20260507205306 49 132 0.0 0.0 0.00 0.00 0.00 85 1015.7
20260507204804 49 132 0.0 0.0 0.00 0.00 0.00 85 1015.7
20260507204304 49 132 0.0 0.0 0.00 0.00 0.00 85 1015.7
20260507203804 49 132 0.0 0.0 0.00 0.00 0.00 85 1015.7
20260507202306 49 132 0.0 0.0 0.00 0.00 0.00 85 1015.7
20260507201804 49 132 0.0 0.0 0.00 0.00 0.00 85 1015.7
20260507201304 49 132 0.0 0.9 0.00 0.00 0.00 85 1015.7
20260507200304 49 132 0.0 0.0 0.00 0.00 0.00 85 1015.6
20260507195305 50 132 0.0 1.7 0.00 0.00 0.00 84 1015.4
20260507194804 50 132 0.0 1.7 0.00 0.00 0.00 84 1015.4
20260507194304 50 132 0.9 1.7 0.00 0.00 0.00 84 1015.4
20260507193304 51 132 0.0 1.7 0.00 0.00 0.00 83 1015.3
20260507190304 52 135 0.9 2.6 0.00 0.00 0.00 81 1015.1
20260507185804 52 135 0.0 2.6 0.00 0.00 0.00 81 1015.1
20260507184804 53 135 0.0 1.7 0.00 0.00 0.00 80 1015.0
20260507184304 53 135 1.7 2.6 0.00 0.00 0.00 80 1015.0
20260507183304 53 140 1.7 6.1 0.00 0.00 0.00 79 1015.0
20260507182804 53 142 0.0 2.6 0.00 0.00 0.00 79 1015.0
20260507182306 53 143 1.7 2.6 0.00 0.00 0.00 79 1014.9
20260507181304 54 146 0.9 5.2 0.00 0.00 0.00 79 1015.0
20260507174304 54 116 0.9 5.2 0.00 0.00 0.00 77 1014.7
20260507173804 54 166 1.7 5.2 0.00 0.00 0.00 77 1014.7
20260507173304 54 165 0.9 2.6 0.00 0.00 0.00 78 1014.8
20260507172804 54 167 0.9 2.6 0.00 0.00 0.00 78 1014.8
20260507171804 54 115 2.6 6.1 0.00 0.00 0.00 78 1015.0
20260507164804 54 95 2.6 5.2 0.00 0.00 0.00 79 1015.0
20260507163804 54 96 1.7 5.2 0.00 0.00 0.00 79 1015.1
20260507163305 54 132 0.9 2.6 0.00 0.00 0.00 80 1015.1
20260507162804 54 132 2.6 4.3 0.00 0.00 0.00 79 1015.1
20260507162307 54 114 1.7 2.6 0.00 0.00 0.00 79 1015.1
20260507161304 54 133 0.9 2.6 0.00 0.00 0.00 80 1015.1
20260507160304 54 134 1.7 2.6 0.00 0.00 0.00 79 1015.1
20260507155804 54 139 1.7 2.6 0.00 0.00 0.00 79 1015.1
20260507153304 54 159 2.6 4.3 0.00 0.00 0.00 79 1015.2
20260507151804 54 185 0.9 2.6 0.00 0.00 0.00 79 1015.2
20260507151304 54 187 1.7 2.6 0.00 0.00 0.00 79 1015.2
20260507150804 53 190 1.7 2.6 0.00 0.00 0.00 79 1015.2
20260507150304 53 215 0.9 2.6 0.00 0.00 0.00 79 1015.3
20260507145306 53 215 0.9 2.6 0.00 0.00 0.00 79 1015.2
20260507142306 54 217 1.7 2.6 0.00 0.00 0.00 78 1015.4
20260507141803 54 157 0.0 1.7 0.00 0.00 0.00 78 1015.4
20260507141304 54 157 0.0 2.6 0.00 0.00 0.00 78 1015.5
20260507140805 54 157 0.9 2.6 0.00 0.00 0.00 78 1015.5
20260507140304 54 157 0.0 1.7 0.00 0.00 0.00 78 1015.5
20260507135804 53 157 0.0 1.7 0.00 0.00 0.00 78 1015.5
20260507135306 53 157 0.9 1.7 0.00 0.00 0.00 78 1015.6
20260507134304 53 157 0.9 2.6 0.00 0.00 0.00 78 1015.5
20260507133304 53 157 0.9 2.6 0.00 0.00 0.00 79 1015.5
20260507132307 53 146 0.9 1.7 0.00 0.00 0.00 79 1015.5
20260507131803 53 146 0.9 2.6 0.00 0.00 0.00 79 1015.5
20260507130804 53 142 0.0 0.0 0.00 0.00 0.00 80 1015.6
20260507130304 52 142 0.0 0.0 0.00 0.00 0.00 80 1015.6
20260507125804 52 142 0.0 0.9 0.00 0.00 0.00 79 1015.6
20260507125306 52 142 0.9 2.6 0.00 0.00 0.00 79 1015.7
20260507124804 52 142 1.7 2.6 0.00 0.00 0.00 79 1015.7
20260507124304 53 147 0.9 1.7 0.00 0.00 0.00 79 1015.7
20260507121304 53 151 1.7 2.6 0.00 0.00 0.00 75 1015.7
20260507120804 53 74 0.0 0.0 0.00 0.00 0.00 75 1015.7
20260507115307 53 42 0.0 0.9 0.00 0.00 0.00 74 1015.6
20260507114304 53 42 0.9 2.6 0.00 0.00 0.00 74 1015.5
20260507113804 53 42 0.9 2.6 0.00 0.00 0.00 73 1015.5
20260507110805 53 311 1.7 6.1 0.00 0.00 0.00 74 1015.7
20260507104804 53 325 2.6 6.1 0.00 0.00 0.00 72 1015.7
20260507104305 54 329 2.6 4.3 0.00 0.00 0.00 72 1015.7
20260507103304 54 240 0.9 2.6 0.00 0.00 0.00 71 1015.7
20260507093804 55 148 2.6 6.1 0.00 0.00 0.00 72 1015.7
20260507092306 54 154 1.7 7.0 0.00 0.00 0.00 73 1015.7
20260507091804 54 133 2.6 6.1 0.00 0.00 0.00 73 1015.7
20260507085804 54 140 2.6 5.2 0.00 0.00 0.00 74 1015.5
20260507085306 54 122 1.7 5.2 0.00 0.00 0.00 76 1015.7
20260507084804 54 123 1.7 6.1 0.00 0.00 0.00 76 1015.7
20260507084304 54 145 3.5 6.1 0.00 0.00 0.00 75 1015.6
20260507082804 53 342 0.9 5.2 0.00 0.00 0.00 78 1015.6
20260507081804 53 68 1.7 4.3 0.00 0.00 0.00 79 1015.5
20260507081304 53 75 1.7 4.3 0.00 0.00 0.00 80 1015.5
20260507080804 53 106 0.9 4.3 0.00 0.00 0.00 82 1015.5
20260507080304 52 78 1.7 2.6 0.00 0.00 0.00 83 1015.4
20260507075307 51 128 1.7 4.3 0.00 0.00 0.00 85 1015.4
20260507073804 50 97 1.7 2.6 0.00 0.00 0.00 88 1015.4
20260507073304 49 98 0.9 2.6 0.00 0.00 0.00 89 1015.3
20260507072803 49 97 0.9 5.2 0.00 0.00 0.00 89 1015.3
20260507072306 49 91 1.7 2.6 0.00 0.00 0.00 89 1015.3
20260507071304 48 76 0.9 1.7 0.00 0.00 0.00 90 1015.2
20260507070304 48 57 0.9 2.6 0.00 0.00 0.00 90 1015.2
20260507065804 48 55 0.9 2.6 0.00 0.00 0.00 90 1015.2
20260507065306 48 52 0.9 2.6 0.00 0.00 0.00 90 1015.2
20260507063804 47 48 0.0 1.7 0.00 0.00 0.00 90 1015.2
20260507062306 47 34 0.9 1.7 0.00 0.00 0.00 90 1015.0
20260507061305 47 34 0.0 1.7 0.00 0.00 0.00 90 1015.1
20260507060804 47 34 0.0 0.0 0.00 0.00 0.00 90 1015.1
20260507055804 47 34 0.0 0.9 0.00 0.00 0.00 90 1015.2
20260507055306 47 34 0.0 0.0 0.00 0.00 0.00 90 1015.0
20260507054803 47 34 0.0 0.9 0.00 0.00 0.00 90 1015.0
20260507054304 47 34 0.0 0.0 0.00 0.00 0.00 90 1014.9
20260507053304 47 34 0.9 1.7 0.00 0.00 0.00 90 1014.8
20260507052306 47 33 0.9 1.7 0.00 0.00 0.00 90 1014.8
20260507051804 47 33 0.0 0.9 0.00 0.00 0.00 90 1014.8
20260507051304 47 33 0.9 1.7 0.00 0.00 0.00 90 1014.8
20260507045306 47 34 0.0 0.9 0.00 0.00 0.00 90 1014.6
20260507044304 47 33 0.0 1.7 0.00 0.00 0.00 90 1014.6
20260507043804 47 34 0.9 1.7 0.00 0.00 0.00 90 1014.6
20260507042804 47 34 0.0 2.6 0.00 0.00 0.00 90 1014.5
20260507042306 47 47 0.0 2.6 0.00 0.00 0.00 89 1014.5
20260507041803 47 46 0.9 1.7 0.00 0.00 0.00 89 1014.5
20260507040304 47 46 0.0 1.7 0.00 0.00 0.00 89 1014.5
20260507034804 47 46 0.9 2.6 0.00 0.00 0.00 89 1014.5
20260507033804 47 51 0.9 2.6 0.00 0.00 0.00 89 1014.4
20260507032306 47 32 0.9 2.6 0.00 0.00 0.00 89 1014.4
20260507030304 47 34 0.0 0.0 0.00 0.00 0.00 89 1014.3
20260507025804 47 34 0.0 0.0 0.00 0.00 0.00 89 1014.3
20260507025306 47 34 0.0 0.9 0.00 0.00 0.00 89 1014.3
20260507022804 47 33 0.0 0.9 0.00 0.00 0.00 89 1014.2
20260507021804 47 33 0.9 1.7 0.00 0.00 0.00 89 1014.2
20260507020304 47 33 0.0 0.9 0.00 0.00 0.00 89 1014.1
20260507015804 47 33 0.9 2.6 0.00 0.00 0.00 89 1014.1
20260507015306 47 34 0.0 0.9 0.00 0.00 0.00 89 1014.2
20260507013304 47 34 0.0 1.7 0.00 0.00 0.00 89 1014.1
20260507012804 47 34 0.9 2.6 0.00 0.00 0.00 89 1014.1
20260507011804 47 40 0.9 2.6 0.00 0.00 0.00 89 1014.1
20260507005305 47 73 0.9 2.6 0.00 0.00 0.00 88 1014.1
20260507004804 47 74 0.9 2.6 0.00 0.00 0.00 88 1014.1